Wind_Speed
97 99 100 101 102 101 99 97 95 94 93 92 92 91 91 90 89 89 89 89 90 89 89 90 90 90 90 90 90 90 91 92 93 93 94 94 95 95 96 96 97 97 98 98 99 99 99 99 100 100 100 100 99 99 100 100 100 100 100 100 100 100 100 101 101 104 108 110 110 113 117 119 121 124 126 129 131 133 135 136 137 139 140 142 143
99 101 102 103 103 102 100 98 96 95 95 94 94 93 93 92 91 90 90 90 90 90 90 91 91 90 90 89 90 90 91 92 92 93 93 94 94 94 94 95 95 95 96 96 96 96 96 97 98 98 98 97 96 97 97 97 97 97 97 97 98 98 99 99 100 102 105 107 107 109 113 115 116 118 120 123 125 128 130 132 133 135 136 138 140
101 103 104 104 104 102 100 99 97 97 96 96 96 95 94 93 92 91 91 90 91 91 91 91 91 90 90 90 90 91 92 92 92 92 93 93 93 93 93 93 93 93 93 93 94 94 94 95 96 96 95 94 94 95 95 95 95 95 95 96 96 97 97 98 99 100 102 103 104 106 111 113 113 114 116 118 120 123 126 128 129 131 133 134 136
103 105 105 105 104 103 101 100 99 98 98 98 97 96 95 94 92 91 91 91 91 92 91 91 91 90 90 90 91 92 92 92 92 92 92 92 91 91 91 91 91 91 91 91 92 93 93 94 95 94 93 92 93 93 94 94 94 94 94 94 94 95 95 96 97 97 98 99 101 104 108 110 111 111 113 114 116 118 121 123 126 127 129 131 133
105 106 106 105 104 103 101 100 100 99 99 98 98 96 95 94 92 91 91 91 91 92 92 91 91 90 91 92 92 92 92 92 92 92 91 91 90 90 89 89 88 89 89 90 91 92 93 93 93 92 91 91 92 92 93 93 92 92 92 92 92 92 93 93 94 94 94 95 98 101 105 107 107 108 109 111 112 114 117 119 122 124 126 127 129
107 107 106 105 104 103 102 101 101 101 100 99 98 96 95 93 92 91 91 91 91 92 91 91 91 91 92 92 93 93 92 92 92 91 91 89 89 88 87 87 87 87 88 90 91 92 93 93 91 90 89 90 91 91 92 91 91 90 90 90 89 89 89 90 90 90 91 92 94 98 101 104 104 104 106 108 109 111 113 116 118 120 122 124 125
107 106 105 104 104 103 103 102 102 101 100 99 97 96 94 93 92 91 91 91 91 91 91 90 91 91 92 93 93 92 92 92 91 91 89 88 87 86 85 85 85 86 88 90 91 92 93 91 90 88 88 89 90 90 90 89 88 87 87 86 86 85 86 86 87 87 88 89 91 94 97 100 101 101 103 105 106 108 110 112 114 116 118 120 121
106 105 105 104 104 103 103 102 101 100 99 98 96 95 93 92 91 90 90 91 90 90 90 90 90 91 92 93 92 92 92 91 91 89 88 87 85 84 84 84 85 86 88 90 91 92 91 90 88 87 87 87 88 87 86 85 84 83 83 83 82 82 83 83 84 84 85 86 88 91 94 96 98 98 100 102 103 105 106 108 110 112 114 116 118
105 105 104 104 104 103 102 101 100 99 97 96 95 93 92 90 90 90 90 90 89 89 89 90 91 91 92 92 92 91 90 90 89 88 86 85 84 83 83 83 84 86 88 90 91 91 90 88 86 85 85 85 85 83 82 81 80 80 80 79 79 79 80 81 82 82 82 83 85 88 90 93 95 96 97 99 100 102 103 104 106 109 111 113 115
105 105 104 104 103 102 101 99 98 96 95 94 92 91 90 89 89 89 89 88 89 89 89 90 91 91 91 91 90 90 89 89 88 86 85 83 82 82 82 83 84 86 88 90 90 90 88 85 84 83 82 82 81 80 78 77 77 77 76 76 76 77 78 79 79 79 80 80 82 85 87 90 92 93 94 95 97 98 100 101 103 106 109 110 112
105 104 104 103 102 100 99 97 96 94 93 91 90 89 88 88 88 88 88 88 88 89 89 90 91 91 90 89 89 88 87 87 86 84 83 82 81 81 81 82 84 86 88 89 88 87 84 83 81 80 80 79 78 76 75 74 74 73 73 73 74 74 75 76 77 77 77 78 80 82 84 87 89 90 91 92 93 95 96 98 100 103 106 108 109
104 103 102 101 100 98 96 95 93 91 90 89 87 87 87 86 87 87 87 88 88 89 89 90 90 89 88 87 87 86 86 86 84 83 82 82 81 80 79 80 83 86 88 89 86 82 80 79 78 77 77 76 75 74 73 72 71 70 70 71 72 72 72 73 74 75 76 77 78 80 82 83 85 87 88 89 90 92 93 95 98 100 103 105 107
103 102 100 99 97 96 94 92 91 89 88 87 86 86 86 86 86 87 87 88 88 88 88 88 88 87 86 85 85 84 84 84 83 82 82 81 81 80 79 79 81 83 85 86 84 80 77 76 76 76 75 74 72 71 70 69 68 67 68 69 70 70 69 69 71 73 74 75 76 78 79 80 82 84 85 86 87 89 91 93 95 97 100 102 104
102 100 98 97 95 93 91 90 88 87 86 85 85 85 85 86 86 87 87 87 87 87 87 86 85 85 84 83 82 82 83 83 82 82 81 80 80 80 79 79 80 80 80 81 80 78 75 74 73 73 72 71 70 68 67 66 65 65 66 67 68 67 67 68 70 71 72 73 74 76 78 78 80 83 84 85 86 87 89 91 93 94 96 98 100
100 98 97 95 93 91 89 88 86 85 84 84 84 85 86 86 86 86 86 86 85 85 84 83 83 83 82 81 80 81 82 82 81 81 80 79 79 79 78 78 77 77 76 76 76 75 74 72 71 70 69 69 68 65 64 63 63 63 64 65 65 65 66 68 70 69 69 70 72 74 76 77 79 81 83 83 84 85 87 89 90 91 92 94 97
98 97 95 93 91 89 88 86 85 84 84 84 85 85 86 86 86 85 84 83 83 82 82 81 81 81 80 79 79 80 81 82 80 79 78 78 77 76 76 76 75 74 74 73 72 72 72 70 69 68 67 66 66 64 62 61 61 62 63 63 63 63 66 68 69 68 67 68 69 72 75 77 78 79 81 82 82 83 85 85 86 87 89 91 94
97 95 93 91 89 87 86 85 84 84 84 85 85 85 85 84 84 82 81 81 80 80 80 79 79 79 79 79 79 79 80 80 78 77 77 76 74 73 73 73 73 72 71 70 70 70 69 68 67 66 66 65 64 63 61 59 60 61 61 61 61 62 65 68 67 65 66 67 68 70 73 75 76 77 78 79 80 81 82 83 85 86 87 89 92
96 94 91 89 87 86 85 84 84 84 84 84 84 84 83 82 81 80 79 78 78 78 78 77 77 78 78 78 78 77 78 78 77 75 75 74 71 70 70 70 70 69 68 68 68 68 67 66 65 64 64 64 63 62 61 59 58 59 60 59 60 62 65 65 63 63 64 66 68 70 71 73 73 74 76 78 79 79 79 80 83 85 86 88 91
94 92 90 88 86 85 84 84 84 84 83 83 82 81 80 79 78 77 77 77 76 76 76 76 76 77 78 77 76 76 75 76 75 73 72 71 69 67 68 68 68 67 66 67 67 66 65 65 64 62 62 62 62 62 61 58 57 57 58 58 60 62 63 62 61 63 64 65 67 68 69 70 71 72 74 76 78 78 78 79 81 83 84 87 89
92 90 88 87 85 85 84 84 83 82 82 81 80 79 78 77 76 76 75 75 74 74 74 75 76 77 77 76 75 74 73 73 73 71 69 68 67 65 65 66 66 64 65 65 65 64 64 63 63 62 60 61 62 61 60 58 56 56 57 58 59 61 61 60 61 63 64 64 65 66 67 69 70 71 72 74 76 76 76 77 79 81 83 85 87
90 89 87 86 85 84 83 83 82 81 80 79 78 77 76 75 75 74 73 73 73 73 74 74 75 75 75 75 74 73 71 71 70 69 67 66 65 63 63 63 63 62 63 64 63 63 63 62 62 61 60 59 60 61 59 58 55 54 56 58 59 59 60 60 62 63 63 63 64 65 66 67 68 69 70 72 73 74 74 75 77 79 81 83 85
89 88 86 85 84 83 82 81 80 79 78 77 76 76 75 74 73 72 72 71 72 73 73 73 73 74 74 74 73 72 70 68 68 67 65 64 64 62 61 61 60 60 61 63 63 62 62 62 62 61 60 59 59 59 58 57 55 55 56 57 58 58 59 60 61 62 62 63 64 64 65 66 67 67 68 69 71 71 72 73 75 77 79 81 82
88 87 85 84 83 82 81 79 78 77 76 75 75 75 74 72 72 71 70 70 71 72 72 72 72 73 73 73 72 70 68 66 65 64 64 63 62 61 59 58 58 58 59 61 62 61 61 61 61 61 61 59 58 58 57 56 56 55 56 56 56 56 57 59 61 61 61 62 63 64 65 66 66 66 67 67 68 69 70 71 73 75 77 78 79
86 85 84 83 81 80 79 77 76 75 74 74 74 73 72 71 70 70 70 70 70 71 71 71 71 72 72 73 71 69 66 65 63 62 62 62 60 59 58 57 57 57 57 59 60 60 60 61 61 61 61 59 58 56 55 55 55 55 55 55 55 54 56 58 59 59 60 62 63 64 65 66 66 66 66 67 67 68 69 70 71 72 74 75 76
85 84 82 81 80 78 77 76 74 74 73 73 72 71 71 70 70 70 69 69 69 69 70 70 70 71 72 71 70 68 66 63 62 60 60 60 59 58 58 58 57 56 56 58 58 59 60 60 61 61 60 59 57 56 55 55 55 54 54 54 54 53 55 57 58 59 60 61 63 64 65 66 66 67 67 67 67 67 68 68 68 69 70 72 74
84 82 81 79 78 76 75 74 73 73 72 71 71 70 70 70 70 69 68 68 68 68 68 69 69 70 71 70 69 68 65 63 60 59 58 58 58 57 58 58 58 57 57 57 57 57 58 59 60 60 60 59 58 57 57 56 55 54 54 53 53 53 55 56 57 58 60 61 62 63 64 65 66 67 68 68 68 67 67 67 66 66 67 68 70
82 81 79 78 76 75 74 73 72 72 71 70 70 70 70 69 69 68 67 66 67 67 67 68 68 69 69 68 67 67 66 63 60 58 57 56 57 57 58 58 58 58 58 57 57 57 58 59 59 60 60 59 59 59 59 58 57 55 54 53 52 53 54 55 57 58 60 61 62 62 63 65 66 68 69 68 68 67 67 66 65 65 66 66 67
80 79 77 76 74 73 72 72 71 70 70 69 69 69 69 68 68 67 66 65 65 65 66 67 67 67 67 66 66 66 66 63 60 58 57 56 56 57 58 58 58 58 58 57 57 58 59 59 59 59 59 59 59 59 60 60 58 57 56 55 53 53 53 55 56 58 59 60 61 61 63 65 66 68 68 68 67 67 67 66 66 67 67 66 66
78 77 75 74 72 71 71 70 70 70 69 69 69 69 69 67 67 67 65 64 64 64 65 66 66 65 65 65 64 65 65 64 61 59 58 57 57 58 58 59 58 58 58 57 58 59 60 60 60 60 59 59 59 59 59 59 58 58 58 57 55 55 55 55 56 58 59 59 60 62 63 65 66 67 67 67 66 65 66 66 67 68 68 67 66
76 75 73 72 70 70 69 69 69 69 69 69 69 69 68 67 66 66 65 64 63 63 64 64 64 63 63 63 63 63 63 63 62 59 58 57 56 57 58 59 59 58 57 57 58 60 61 61 62 62 61 60 60 60 60 59 58 58 58 57 56 56 56 56 56 57 58 58 60 62 64 65 66 66 66 65 64 64 64 66 67 68 68 68 67
74 72 71 70 69 69 68 69 69 69 69 68 68 69 68 67 66 65 65 65 64 63 62 62 62 61 61 61 62 62 62 62 62 60 58 57 56 56 57 58 58 58 57 57 58 59 60 60 61 62 61 60 60 60 60 60 59 59 58 57 57 57 56 56 56 57 57 58 60 62 63 64 65 65 64 63 62 62 63 64 66 67 68 68 68
72 70 69 68 68 68 68 69 69 69 68 68 68 68 68 67 67 65 64 64 64 62 60 59 59 60 59 59 59 60 61 62 62 62 61 60 59 58 58 58 58 57 56 56 58 59 60 61 62 61 61 60 59 59 58 57 57 57 57 57 56 56 56 56 57 57 57 58 59 60 62 63 64 63 62 61 60 60 61 63 65 66 66 67 68
69 68 67 67 68 68 68 69 69 69 68 67 67 67 67 66 67 67 66 65 63 61 59 57 57 57 57 57 57 57 57 58 59 59 60 61 61 60 60 60 60 58 56 56 57 58 59 61 62 63 62 61 60 59 58 56 55 54 54 53 54 54 54 55 55 56 56 57 58 58 60 62 62 62 61 60 59 59 60 61 63 64 64 65 66
67 66 66 67 68 68 68 68 68 68 67 67 67 67 66 65 66 67 67 66 64 62 59 56 55 55 55 55 56 56 56 55 56 56 56 57 58 59 60 60 60 59 58 57 58 59 59 60 60 61 61 61 61 61 59 58 56 55 53 52 51 51 52 52 52 53 53 54 54 56 58 59 60 60 60 59 58 58 58 59 61 62 63 63 65
65 66 66 67 67 68 68 68 68 67 67 66 66 66 65 65 66 66 66 66 65 63 60 57 56 55 54 54 54 54 54 54 54 54 54 54 54 55 56 58 59 59 59 59 58 59 59 60 60 60 60 60 60 59 59 58 58 57 55 54 52 51 51 51 51 51 50 51 52 53 54 55 57 58 58 57 57 57 56 56 57 59 60 62 63
65 66 66 67 67 67 67 67 67 67 66 66 66 66 65 65 65 66 65 65 64 63 62 59 57 56 55 54 54 54 54 54 53 53 54 54 53 53 54 55 56 58 60 60 60 59 59 59 60 60 60 59 59 59 58 58 57 57 56 55 55 53 52 52 51 50 50 50 50 51 51 52 53 55 55 55 55 55 54 54 54 55 57 59 61
65 66 66 66 67 67 67 67 67 66 66 65 65 65 65 65 65 65 65 64 63 62 61 60 59 57 56 55 54 55 55 54 53 53 54 54 54 53 53 54 55 57 58 60 60 60 60 59 59 59 59 59 58 58 58 57 57 57 56 56 55 55 54 53 52 51 50 50 50 50 50 50 51 52 52 53 53 54 52 51 51 52 54 56 59
65 66 66 66 66 66 66 66 66 66 65 65 65 65 65 65 65 64 64 63 62 61 61 60 59 58 57 56 55 55 55 55 54 54 54 54 54 53 53 54 55 56 57 58 59 59 60 60 59 59 58 58 58 58 58 57 57 57 56 56 55 55 54 53 53 52 51 50 49 49 48 48 48 49 49 50 52 52 51 49 49 51 53 55 56
65 65 66 66 66 66 66 66 66 65 64 64 64 65 65 65 64 64 63 62 61 61 60 59 59 58 57 56 56 56 56 56 55 55 55 55 55 54 54 54 55 56 56 56 57 57 57 57 57 57 57 58 58 58 57 57 57 57 56 56 55 55 54 53 52 51 50 48 47 47 47 46 46 46 47 48 50 50 49 48 49 50 52 53 54
65 65 65 65 65 65 65 66 65 65 64 64 64 65 65 64 64 63 62 62 61 61 60 59 58 57 56 56 55 55 56 56 56 56 57 57 56 56 56 56 57 57 57 57 57 56 56 56 55 55 55 55 56 56 56 56 57 57 57 56 55 55 54 52 51 49 48 46 45 45 45 45 45 45 45 46 47 47 47 48 49 50 52 52 52
65 65 65 64 65 65 65 65 65 64 64 64 64 64 64 64 63 62 61 61 61 61 60 59 58 57 56 55 55 54 55 55 56 56 57 57 58 58 58 58 58 58 58 58 58 58 57 56 56 56 55 55 54 54 54 55 55 56 56 56 55 54 52 51 49 47 45 44 43 43 43 44 44 43 42 42 43 45 46 47 48 50 51 50 49
65 64 64 64 64 65 65 65 65 64 64 64 64 64 64 63 62 61 61 61 60 60 60 59 58 57 56 55 55 54 54 54 54 55 56 57 57 58 58 58 58 58 58 59 58 58 57 57 57 56 56 55 55 55 54 54 53 53 53 53 52 51 50 48 47 45 44 42 41 41 41 42 41 40 39 40 41 43 44 46 47 48 48 47 46
64 64 63 64 64 64 64 64 65 65 65 64 64 63 62 62 61 61 61 60 60 60 59 59 58 57 57 56 55 54 54 53 54 54 55 56 56 57 57 57 57 57 58 58 57 57 57 56 56 55 55 55 55 55 54 53 51 51 50 49 49 48 47 45 44 43 42 42 40 39 39 39 38 38 38 38 40 41 43 44 45 45 45 44 44
63 63 63 63 64 64 64 64 65 65 65 64 63 62 61 61 61 60 60 60 59 59 58 58 57 57 56 56 55 54 54 54 54 54 55 55 55 56 56 56 56 57 56 56 56 56 56 55 54 54 53 53 53 53 52 50 49 48 47 46 46 45 43 42 41 41 40 40 39 38 37 37 36 36 37 38 39 40 41 41 42 42 42 42 42
63 63 63 63 63 64 64 64 64 65 64 63 62 61 60 60 60 60 59 59 59 58 57 57 56 56 55 55 54 54 54 54 54 55 55 56 56 55 55 55 56 56 56 55 55 55 54 54 53 53 52 52 51 50 49 48 46 45 44 43 43 42 41 40 39 38 38 38 37 36 36 35 35 35 36 37 38 38 38 38 39 39 40 40 40
62 62 62 63 63 63 64 64 64 64 63 62 61 60 60 59 59 59 58 58 57 57 56 56 55 55 54 54 53 53 53 53 54 55 56 56 56 55 55 55 55 55 55 55 54 53 53 52 52 51 50 49 48 47 46 44 43 42 41 40 40 39 38 37 36 35 35 35 35 35 34 34 34 34 35 36 36 36 35 36 37 37 38 38 38
62 62 62 62 63 63 64 64 64 63 62 61 60 60 59 59 59 58 58 57 56 55 55 54 54 54 53 53 53 52 52 53 54 55 56 56 55 55 55 55 54 54 54 53 52 52 51 50 50 48 48 47 46 44 43 42 41 40 38 38 37 36 35 35 34 33 33 33 33 33 33 32 32 33 33 33 33 33 33 34 35 35 35 35 35
61 61 62 62 62 63 63 63 63 62 61 60 60 59 59 58 58 58 57 56 55 54 54 53 53 53 52 52 52 52 52 53 54 55 55 55 55 54 54 54 53 53 52 51 51 50 49 48 47 46 45 44 43 42 40 39 38 37 35 35 34 33 32 32 31 31 31 31 31 31 31 31 30 31 31 31 31 31 32 32 33 33 33 33 33
61 61 62 62 63 63 63 63 62 61 61 60 60 59 59 58 57 57 56 55 54 53 53 52 52 52 51 51 51 51 52 53 54 55 54 54 54 53 53 52 52 51 50 50 49 49 48 46 45 43 43 42 41 39 38 37 35 34 33 32 31 30 30 29 29 29 29 29 29 29 29 29 28 28 29 29 29 29 30 30 30 30 30 31 31
61 61 62 62 62 63 62 62 61 61 60 60 60 59 59 58 57 55 54 54 53 52 52 51 51 51 50 50 50 51 52 53 54 54 54 53 53 52 52 51 50 50 49 48 48 47 46 44 43 41 40 40 38 37 36 35 33 32 31 29 29 28 27 27 26 26 26 26 26 26 26 26 26 26 26 26 27 27 28 28 28 28 28 28 29
62 62 62 62 62 62 62 61 61 60 60 60 59 59 58 57 56 54 53 52 52 51 51 50 50 50 50 50 50 51 52 53 53 53 53 53 52 51 51 50 49 48 48 47 46 45 44 43 41 40 38 37 36 35 34 33 31 30 29 27 26 26 25 24 24 24 23 23 23 23 23 23 23 23 24 24 25 25 25 26 26 26 26 26 27
Wind_Direction
310 310 310 310 310 309 308 307 305 304 304 303 302 301 299 297 295 294 292 291 290 289 288 287 287 286 286 286 286 286 285 285 284 283 283 283 283 282 282 282 281 281 280 279 278 278 277 276 275 274 274 273 272 272 271 271 270 269 269 268 267 266 264 262 261 260 260 259 257 256 255 253 252 251 251 251 251 250 250 249 248 247 246 246 245
310 310 310 310 309 308 308 306 305 305 304 303 302 301 299 298 296 294 293 292 290 289 288 288 287 287 287 287 287 287 286 286 285 285 285 284 284 284 284 283 283 282 281 280 280 279 278 277 276 275 275 274 274 273 273 272 271 270 270 269 268 266 265 264 262 261 260 259 258 257 256 255 253 252 251 250 250 250 249 249 248 247 246 245 244
310 310 310 309 309 308 307 306 305 305 304 303 302 301 299 298 296 294 293 292 291 290 289 288 288 288 289 289 288 288 287 287 287 286 286 286 285 285 285 285 284 283 282 282 281 280 279 278 277 276 276 276 275 275 274 273 272 271 270 269 268 267 266 264 263 262 261 260 259 258 257 256 255 253 252 250 249 249 249 248 247 247 246 245 244
310 310 309 309 308 308 307 306 305 304 304 303 301 300 299 297 296 295 293 292 291 290 290 290 290 290 290 290 289 289 288 288 288 288 287 287 287 286 286 285 285 284 283 282 281 281 280 279 278 278 278 277 277 276 275 274 273 272 271 270 269 268 266 265 264 262 261 261 259 258 257 257 255 254 253 251 250 249 249 248 247 246 245 245 244
310 309 309 308 308 307 306 306 305 304 303 302 301 300 299 298 296 295 294 293 292 291 291 291 291 291 291 290 290 290 290 290 289 289 288 288 288 288 287 287 286 285 284 284 283 282 281 280 279 279 279 279 278 277 276 275 274 273 272 271 269 268 267 265 264 263 261 260 259 258 257 257 256 255 254 253 251 250 249 248 247 246 245 244 243
309 309 308 308 307 306 306 305 304 303 302 302 301 300 299 298 297 295 294 293 293 292 292 293 292 292 291 291 291 291 291 291 290 290 290 289 289 289 288 288 287 286 286 285 284 283 282 281 280 281 280 279 278 277 276 275 274 273 272 271 270 268 267 266 264 263 261 260 258 258 257 256 256 255 254 253 252 250 249 248 248 247 246 244 243
309 308 308 307 307 306 306 305 304 303 302 302 301 301 300 298 297 296 295 294 293 293 293 293 293 292 292 292 292 292 292 292 291 291 291 291 290 290 289 288 288 287 286 285 284 283 282 282 282 282 281 280 279 277 276 276 275 274 272 271 270 268 267 266 264 263 261 260 259 258 257 257 256 255 254 253 252 251 250 249 248 247 247 246 244
308 308 307 307 306 306 305 304 303 303 302 302 301 301 299 298 297 296 295 294 294 294 294 293 293 292 292 293 293 293 293 292 292 292 292 292 291 291 290 289 288 288 287 286 284 283 283 283 283 282 281 280 278 277 276 276 275 274 272 271 270 269 267 266 264 263 261 260 259 258 257 257 256 255 254 253 252 251 250 249 249 248 247 246 245
308 308 307 307 306 306 305 304 303 303 303 302 302 300 299 298 297 296 295 295 295 295 294 294 293 293 293 294 294 294 294 293 293 293 293 292 292 291 290 290 290 289 288 286 284 284 283 284 284 283 281 280 278 277 276 276 275 273 272 271 270 269 268 266 265 263 262 261 259 258 258 257 256 255 254 253 253 252 251 250 249 248 247 246 245
308 307 307 307 306 305 304 304 303 303 303 302 301 300 299 298 297 296 296 296 295 295 295 294 294 294 294 295 295 295 294 294 293 293 293 292 292 292 292 291 291 289 287 286 284 284 285 285 284 283 281 279 278 278 277 276 275 274 273 272 270 269 268 267 265 264 263 261 260 259 258 257 257 256 255 254 253 252 251 250 249 249 248 246 245
308 307 307 307 306 305 304 304 304 304 303 302 301 300 299 298 297 297 297 296 296 295 295 295 295 295 296 296 295 295 295 295 294 294 293 293 293 293 293 293 291 289 287 285 285 285 286 285 284 282 281 280 279 278 277 276 275 274 273 272 271 269 268 267 266 265 264 262 261 259 258 258 257 257 256 255 254 253 252 251 250 249 248 247 246
308 307 307 306 305 305 305 305 305 304 303 301 300 300 299 298 298 297 297 296 296 296 296 296 296 296 296 296 296 296 296 295 295 294 294 294 294 294 293 292 291 289 287 287 286 286 286 285 284 282 281 280 280 279 278 277 276 275 274 273 271 270 268 267 266 265 264 263 262 261 260 259 258 258 257 256 255 254 253 251 250 249 249 248 247
308 307 307 306 305 305 306 305 305 303 302 301 301 300 300 299 298 298 297 297 297 297 297 297 297 297 297 297 297 297 296 296 295 295 295 296 295 295 293 291 289 288 288 287 287 287 286 285 284 283 282 281 280 280 279 278 277 276 275 273 272 270 269 268 266 265 264 263 262 261 261 260 259 258 257 256 255 254 253 252 251 250 249 248 248
308 307 307 306 306 306 306 305 304 303 302 302 301 301 300 299 299 298 298 298 298 298 298 298 298 298 298 298 298 297 297 296 296 296 296 296 296 294 293 291 289 288 288 287 287 287 286 285 284 283 283 282 281 281 280 280 278 277 275 274 272 271 270 268 266 265 264 263 263 262 261 260 259 259 258 256 255 254 254 253 251 250 250 250 249
308 308 307 307 307 307 307 305 304 304 303 303 302 301 300 300 299 299 299 299 300 299 299 299 299 299 299 299 298 298 297 296 297 297 297 296 295 294 293 291 290 289 288 288 288 287 287 286 285 284 284 283 282 282 281 280 279 277 275 274 273 272 270 268 266 264 264 263 263 263 262 260 259 259 258 257 256 255 255 254 253 252 252 251 250
309 309 308 309 308 308 307 306 305 304 304 303 302 302 301 301 300 300 301 301 300 300 300 300 300 299 299 299 298 298 297 297 297 297 297 296 295 294 293 292 291 290 289 289 289 288 287 287 286 286 285 284 283 282 281 280 278 277 275 274 273 272 270 268 266 265 264 263 262 262 261 260 259 258 258 258 257 257 256 255 255 254 252 252 251
310 309 309 309 308 307 307 306 306 305 305 304 303 302 302 301 302 302 302 301 301 301 301 301 301 300 300 299 298 298 297 297 297 297 296 295 295 294 294 292 291 291 291 291 290 289 289 288 288 287 286 285 284 283 281 279 278 277 275 274 273 271 269 268 267 267 266 265 263 261 261 261 260 260 259 258 257 256 256 256 255 254 252 251 250
310 310 310 309 308 308 307 307 307 306 305 304 303 303 303 303 303 303 302 302 302 302 302 301 301 300 299 299 298 298 298 297 297 297 296 296 296 295 294 293 292 292 292 292 291 290 290 289 289 288 287 286 285 283 282 280 278 277 276 275 273 270 269 268 268 267 266 264 263 262 261 261 261 262 261 261 259 257 256 255 254 254 253 252 251
311 310 310 309 309 309 308 308 307 306 305 305 304 304 304 304 304 303 303 303 303 303 302 302 301 300 299 299 299 298 298 298 298 298 297 297 296 296 295 294 294 294 293 292 291 291 290 290 289 288 288 287 286 284 283 281 280 278 277 275 273 271 269 269 268 266 264 263 262 262 261 261 261 260 260 260 260 259 258 256 255 254 253 252 252
311 311 310 310 310 309 309 308 307 306 306 306 306 305 305 305 304 304 304 304 304 303 302 302 301 300 299 299 299 299 299 299 298 298 298 297 297 296 296 295 295 295 294 293 292 292 291 291 290 289 288 287 286 285 284 283 281 280 279 276 274 273 272 271 269 266 264 263 262 262 261 261 260 259 259 259 259 259 259 258 257 256 254 253 252
311 311 311 310 310 310 309 308 307 307 307 307 307 306 305 305 305 305 305 305 304 303 302 302 301 300 300 300 300 300 300 300 299 298 298 298 297 297 296 295 295 295 294 293 293 293 293 292 291 290 289 287 286 285 284 283 282 281 279 277 276 275 275 273 271 269 267 265 264 262 261 260 260 259 259 259 258 258 258 258 257 257 256 255 253
312 311 311 311 310 310 309 309 309 308 308 308 307 306 306 306 306 306 305 305 304 304 303 302 302 301 301 301 300 301 301 300 299 299 299 298 298 297 296 296 295 295 294 294 294 294 293 293 292 291 290 288 287 286 286 285 283 281 279 278 277 276 275 274 272 271 270 268 267 265 263 262 260 259 259 258 258 258 258 257 256 256 255 255 255
312 312 311 311 310 310 310 310 310 309 309 308 307 306 307 307 306 306 306 306 305 304 304 303 303 302 302 301 301 301 301 301 300 300 299 298 298 297 296 295 295 295 294 294 294 294 294 293 292 291 290 289 288 287 286 285 283 281 279 278 277 276 275 274 273 272 271 270 269 268 266 265 263 262 260 259 259 258 257 256 255 255 255 255 255
312 312 311 311 311 311 310 310 310 310 309 308 307 307 307 307 307 307 307 306 306 305 304 304 304 303 303 302 302 302 302 301 301 300 299 298 297 297 296 295 294 294 294 294 294 294 294 293 292 291 290 289 288 287 286 284 281 280 279 278 277 276 275 274 273 272 272 271 270 269 268 267 266 265 263 261 260 258 257 256 255 255 255 254 254
312 312 311 311 311 311 311 311 310 309 308 308 308 308 308 307 307 307 307 307 306 306 305 305 305 304 304 303 303 302 302 301 301 300 299 298 297 297 296 295 294 294 293 293 294 294 294 293 293 292 291 290 289 288 286 284 282 280 279 278 277 276 274 273 273 272 272 271 271 270 270 269 269 268 266 264 262 260 258 256 255 253 253 253 253
312 312 312 312 312 312 312 311 310 309 308 308 308 308 308 308 308 308 308 308 307 306 306 306 305 305 304 304 303 302 302 301 301 300 298 297 297 296 295 295 294 294 293 293 294 294 294 294 294 293 293 293 291 290 287 285 283 281 280 279 277 276 275 274 273 273 272 271 271 271 271 271 270 269 268 267 265 264 261 259 257 255 253 251 251
312 313 313 313 313 313 312 310 309 309 309 309 309 309 309 309 309 308 309 308 307 307 307 306 306 306 305 304 303 302 302 301 301 300 299 298 297 296 295 295 294 294 294 294 295 295 295 294 294 294 294 293 292 291 289 287 285 283 281 278 276 275 274 273 273 273 272 271 271 271 271 270 269 269 268 268 267 266 265 263 261 258 255 252 250
313 313 314 314 313 312 311 310 309 309 309 309 309 309 309 309 309 309 309 309 308 308 308 307 307 306 305 304 304 302 301 301 301 300 299 299 298 296 296 295 295 295 295 295 295 295 294 294 294 294 294 293 292 291 290 289 288 286 284 281 278 276 274 273 273 272 272 271 271 271 270 269 268 267 267 267 267 266 265 264 263 261 259 256 253
314 314 314 314 313 312 310 310 310 310 310 310 310 310 310 310 310 310 309 309 309 309 309 308 307 306 305 304 304 303 302 302 302 302 301 300 299 298 297 296 296 296 296 297 297 296 295 295 295 294 293 292 291 290 289 288 288 287 285 283 281 279 276 275 274 273 272 272 271 270 269 268 267 267 266 266 265 265 264 263 262 262 261 259 257
314 314 314 313 312 311 310 310 310 310 311 311 311 310 310 311 311 310 310 310 310 310 310 309 308 306 305 304 303 302 302 302 302 301 300 300 299 298 298 298 298 298 298 298 297 296 296 297 297 296 295 294 292 291 290 289 287 286 284 283 281 279 277 276 274 273 272 272 271 270 269 268 267 267 266 265 264 263 262 261 261 261 261 260 259
314 314 314 313 312 311 311 311 311 311 311 311 311 311 311 311 311 311 311 311 311 311 310 309 308 307 306 305 304 303 303 302 302 301 301 300 299 298 298 298 298 298 298 297 296 295 295 295 295 294 294 293 292 291 290 289 288 286 285 284 282 280 279 277 275 274 273 272 271 270 270 269 268 267 266 265 263 262 260 260 259 259 259 259 259
315 315 313 312 311 311 311 311 311 311 312 312 312 312 312 312 312 311 312 311 311 311 311 310 308 307 306 305 304 304 304 304 303 303 303 303 302 301 300 299 298 298 298 297 296 296 296 296 295 293 292 291 290 288 287 286 285 284 283 282 281 280 279 278 277 276 275 273 272 272 271 269 268 268 267 265 264 262 260 259 258 258 258 258 258
315 314 313 312 312 312 312 312 312 312 313 313 313 313 313 313 312 312 312 312 312 311 311 310 308 307 306 305 303 303 302 302 302 302 303 303 303 303 302 301 300 299 298 297 296 296 296 296 296 296 295 294 293 291 289 286 284 282 280 279 278 277 276 276 275 274 274 273 273 272 271 270 269 269 267 266 264 262 259 258 258 258 257 257 256
315 314 313 312 313 313 313 312 313 313 314 314 313 313 313 313 313 313 313 313 312 312 311 310 309 307 306 305 303 303 302 301 301 300 300 301 302 302 302 301 301 300 299 299 298 298 297 297 296 296 296 296 295 294 293 292 289 287 284 282 279 277 276 275 273 272 272 271 271 270 270 270 269 269 268 266 264 261 259 257 256 257 257 256 256
314 314 313 313 314 314 313 313 313 314 314 314 314 314 314 314 314 313 313 313 313 312 312 311 310 308 307 305 304 303 302 301 300 299 299 299 299 299 300 300 300 300 300 300 300 300 299 299 298 297 297 296 295 294 294 293 292 291 289 287 285 283 280 278 276 274 272 271 270 270 269 269 269 269 268 266 264 262 259 257 255 254 254 254 254
314 314 314 314 314 314 314 314 314 314 315 314 314 314 314 314 314 314 314 313 313 313 312 312 311 310 308 307 306 304 303 302 301 301 300 300 300 300 300 300 300 301 301 301 301 301 300 300 299 298 297 296 296 295 294 293 292 291 291 290 288 287 285 283 280 278 276 274 273 271 270 269 268 268 267 266 264 262 260 257 255 253 252 251 252
315 315 315 315 315 314 314 314 314 315 315 315 314 315 315 315 315 314 314 314 313 313 312 312 312 311 310 309 308 306 305 304 304 303 302 302 302 302 302 301 301 302 302 302 302 302 301 301 300 299 298 297 296 295 295 294 293 292 291 290 289 288 287 285 283 281 279 277 275 273 271 268 267 266 265 264 263 262 260 257 255 253 251 250 250
316 317 317 316 315 315 315 315 315 315 315 315 315 315 315 315 315 315 314 314 314 313 313 312 312 312 311 310 309 308 307 306 306 305 304 304 303 303 302 302 303 303 303 303 303 303 303 302 301 300 299 298 297 296 295 295 294 293 292 291 290 288 287 285 284 282 281 279 276 274 271 268 266 264 263 262 261 261 259 257 255 253 252 251 250
318 318 317 316 316 315 315 315 315 316 316 316 316 316 316 315 315 315 315 314 314 313 313 313 312 312 311 311 310 309 309 308 308 307 306 306 305 305 304 304 304 304 304 303 303 303 303 302 301 300 299 298 298 297 296 296 295 294 293 291 290 289 287 286 284 282 281 279 276 273 271 268 265 262 261 260 259 259 259 257 255 253 253 252 251
319 318 317 316 316 316 316 316 316 316 316 316 316 316 316 316 316 315 315 315 314 314 313 313 312 312 312 311 311 310 310 309 309 309 309 308 308 307 307 307 307 307 307 306 306 305 304 303 302 301 300 298 298 297 297 296 295 294 293 292 290 289 287 286 284 283 281 278 275 273 270 267 264 261 259 258 258 258 257 255 254 253 253 252 252
319 318 317 317 316 316 316 316 316 316 317 317 317 317 316 316 316 316 315 315 314 314 314 313 313 312 312 311 311 311 310 310 310 310 310 310 310 310 310 310 310 310 310 309 309 308 307 306 305 303 302 300 299 298 297 296 294 293 292 291 290 289 288 286 285 283 281 278 274 271 269 266 265 262 260 258 256 255 254 253 252 252 252 252 252
319 318 318 317 317 316 316 317 317 317 317 317 317 317 317 316 316 316 316 315 315 314 314 314 313 313 312 312 311 311 311 311 311 311 310 310 310 311 311 312 312 312 312 311 310 309 308 307 306 305 303 302 301 300 298 296 295 293 291 290 289 288 287 286 285 283 280 277 273 270 268 267 265 263 260 257 255 253 251 251 251 251 252 252 252
319 318 318 317 317 317 317 317 317 318 318 318 318 317 317 317 317 316 316 315 315 315 314 314 314 313 313 313 312 312 312 312 312 311 310 310 311 311 312 313 313 313 313 312 311 310 308 307 306 305 304 303 302 300 299 297 295 294 292 290 289 287 286 285 283 281 279 277 274 271 269 267 265 262 260 257 254 252 251 250 250 251 251 250 250
319 319 318 318 318 318 318 318 318 318 318 318 318 318 317 317 317 317 316 316 316 315 315 314 314 314 313 313 313 313 313 313 313 312 311 311 312 313 313 314 314 314 313 312 311 310 308 307 307 306 305 303 302 300 299 298 296 294 293 291 289 287 286 284 282 280 278 277 275 272 269 266 263 260 258 255 253 252 251 250 250 250 249 249 248
320 319 319 318 318 318 318 318 318 318 318 318 318 318 318 318 317 317 316 316 316 315 315 314 314 314 313 313 313 314 314 314 314 313 313 314 314 315 316 316 316 315 314 313 311 310 309 308 308 307 305 304 302 301 299 298 297 295 293 291 289 287 285 283 281 279 277 275 273 271 268 265 262 259 257 255 254 252 251 251 250 249 248 247 247
320 320 319 319 319 319 319 319 319 319 319 319 319 319 318 318 318 317 317 317 316 316 315 315 314 314 314 314 314 315 315 316 315 315 315 316 317 317 318 318 317 316 315 313 312 311 310 310 309 307 306 304 303 302 301 299 297 295 293 291 289 287 285 282 280 278 276 274 272 270 268 265 262 259 257 256 255 254 252 251 249 248 247 246 246
320 320 320 319 319 319 319 319 319 319 320 320 319 319 319 319 318 318 318 317 317 316 316 315 315 315 315 315 316 316 317 317 317 317 317 318 319 319 320 319 318 317 316 314 313 312 312 311 310 308 307 306 305 304 302 300 298 295 293 291 288 286 284 282 280 277 275 273 271 269 267 264 262 260 258 257 256 254 252 250 248 247 246 245 244
321 321 320 320 320 320 320 320 320 320 320 320 320 320 320 320 319 319 318 318 318 317 317 316 316 316 316 316 317 318 318 318 318 318 319 319 320 321 321 320 319 318 316 315 315 314 314 313 311 310 309 307 306 305 303 301 298 296 293 291 288 286 283 281 279 276 274 273 271 269 267 265 262 260 258 257 255 253 251 249 248 246 245 244 242
321 321 321 321 321 321 321 321 321 322 322 322 322 321 321 321 320 320 319 319 319 318 318 317 317 317 317 318 319 319 320 320 320 320 320 321 322 322 322 321 320 319 317 317 317 316 315 314 313 312 310 309 307 306 304 302 299 297 294 292 289 286 283 280 278 276 274 273 271 270 268 265 262 260 258 256 254 252 250 248 246 245 243 242 241
322 323 322 322 322 322 322 322 322 323 323 323 322 322 322 322 321 321 321 320 320 319 319 319 318 319 319 320 321 321 321 321 321 321 322 323 324 323 323 322 321 320 319 319 319 318 317 317 316 314 312 310 308 307 305 303 300 298 296 294 291 287 283 280 278 276 274 273 271 269 267 265 263 261 258 255 253 251 248 246 245 243 241 240 239
324 324 323 323 323 323 323 323 324 324 324 323 323 323 323 322 322 322 322 321 321 320 320 320 320 320 321 322 322 323 323 322 323 323 324 325 325 324 324 323 322 322 322 321 320 320 319 319 318 316 314 312 310 307 305 303 302 300 298 296 293 289 285 281 278 276 274 272 270 268 265 263 261 259 257 254 252 249 247 245 243 241 239 238 237
Height
10225 10217 10209 10201 10192 10184 10176 10169 10162 10154 10148 10142 10135 10129 10122 10116 10110 10104 10099 10093 10087 10082 10077 10071 10065 10060 10056 10052 10047 10042 10036 10031 10026 10021 10017 10013 10009 10005 10001 9997 9993 9988 9983 9979 9975 9971 9967 9962 9959 9956 9954 9954 9953 9952 9950 9948 9948 9948 9948 9949 9949 9949 9950 9950 9952 9948 9938 9940 9949 9948 9943 9945 9950 9952 9955 9960 9964 9970 9976 9983 9990 9997 10005 10013 10019
10212 10204 10196 10187 10179 10171 10163 10156 10148 10141 10134 10128 10121 10114 10107 10102 10096 10089 10084 10078 10073 10067 10061 10056 10051 10046 10042 10037 10031 10026 10020 10015 10010 10006 10001 9996 9992 9988 9984 9980 9975 9971 9966 9961 9957 9953 9949 9944 9940 9938 9937 9937 9936 9934 9932 9931 9931 9931 9930 9930 9930 9929 9929 9929 9930 9928 9922 9922 9930 9928 9920 9921 9928 9932 9936 9941 9945 9948 9953 9960 9967 9974 9981 9988 9995
10198 10190 10182 10173 10165 10157 10149 10141 10134 10127 10120 10113 10106 10100 10093 10087 10081 10074 10069 10063 10057 10051 10046 10041 10036 10031 10026 10021 10015 10009 10004 9999 9994 9990 9984 9980 9976 9972 9968 9963 9958 9953 9948 9944 9939 9935 9931 9927 9923 9921 9921 9921 9918 9916 9915 9914 9913 9913 9912 9911 9911 9909 9909 9909 9909 9909 9906 9907 9911 9909 9900 9899 9906 9911 9915 9921 9925 9927 9931 9937 9944 9950 9956 9963 9970
10184 10175 10167 10159 10151 10143 10135 10128 10121 10114 10107 10100 10093 10086 10080 10073 10067 10060 10054 10048 10041 10035 10030 10025 10020 10016 10011 10005 9999 9993 9988 9983 9978 9973 9968 9964 9961 9957 9952 9947 9942 9937 9932 9927 9922 9918 9914 9910 9906 9904 9905 9904 9901 9899 9898 9897 9896 9895 9894 9892 9892 9891 9890 9890 9890 9890 9891 9891 9891 9888 9881 9878 9885 9891 9894 9900 9905 9907 9911 9916 9921 9926 9932 9939 9946
10169 10161 10153 10145 10137 10129 10121 10114 10107 10100 10093 10086 10079 10072 10065 10059 10052 10045 10038 10032 10026 10020 10014 10009 10005 10000 9994 9988 9982 9977 9972 9967 9962 9957 9952 9949 9945 9941 9936 9932 9927 9921 9916 9910 9905 9901 9897 9893 9890 9890 9890 9888 9885 9882 9880 9879 9878 9877 9876 9875 9874 9874 9873 9872 9872 9873 9874 9873 9871 9868 9862 9859 9866 9873 9875 9878 9884 9887 9891 9894 9898 9903 9910 9917 9924
10156 10148 10139 10131 10124 10115 10107 10100 10092 10085 10078 10071 10064 10057 10050 10044 10036 10029 10023 10016 10011 10004 9999 9995 9989 9984 9978 9971 9966 9961 9956 9951 9945 9940 9936 9933 9930 9925 9920 9916 9911 9905 9900 9894 9888 9883 9879 9877 9876 9875 9874 9872 9868 9866 9863 9862 9861 9860 9859 9858 9857 9856 9855 9854 9854 9855 9856 9855 9853 9849 9844 9842 9848 9855 9856 9857 9863 9867 9870 9873 9877 9882 9888 9896 9904
10142 10134 10125 10117 10110 10101 10093 10086 10077 10070 10063 10055 10049 10042 10034 10028 10021 10014 10007 10001 9996 9990 9985 9980 9974 9967 9961 9956 9951 9946 9940 9935 9929 9924 9921 9918 9914 9910 9905 9901 9896 9890 9885 9878 9872 9867 9863 9862 9862 9861 9859 9856 9852 9849 9847 9846 9845 9844 9842 9841 9840 9840 9839 9837 9837 9837 9838 9838 9836 9833 9829 9827 9831 9837 9837 9838 9842 9847 9850 9854 9858 9863 9869 9875 9883
10128 10119 10111 10103 10095 10087 10079 10071 10063 10056 10049 10041 10034 10027 10019 10012 10006 9999 9993 9987 9982 9977 9971 9965 9959 9952 9946 9941 9936 9930 9925 9919 9913 9909 9906 9902 9899 9895 9891 9886 9881 9875 9870 9862 9855 9851 9848 9848 9848 9846 9843 9840 9836 9833 9832 9830 9830 9828 9826 9825 9824 9824 9822 9820 9820 9820 9821 9821 9820 9817 9814 9812 9813 9818 9821 9821 9824 9828 9832 9836 9840 9845 9851 9856 9860
10113 10105 10097 10089 10081 10073 10065 10056 10049 10042 10034 10027 10019 10012 10004 9997 9991 9984 9978 9973 9968 9962 9956 9950 9944 9938 9932 9926 9921 9915 9910 9903 9898 9894 9891 9887 9884 9880 9876 9871 9866 9860 9853 9846 9839 9836 9834 9834 9834 9831 9827 9823 9820 9818 9817 9816 9815 9812 9811 9810 9809 9807 9805 9804 9803 9804 9805 9805 9804 9801 9799 9796 9796 9800 9804 9805 9807 9811 9815 9820 9823 9825 9829 9835 9840
10099 10091 10083 10074 10066 10058 10050 10042 10035 10028 10020 10012 10004 9997 9990 9983 9976 9970 9965 9959 9953 9947 9941 9935 9929 9923 9918 9912 9906 9901 9895 9888 9883 9879 9876 9873 9870 9866 9862 9857 9851 9844 9836 9829 9824 9821 9821 9820 9819 9815 9811 9807 9805 9804 9803 9802 9800 9798 9797 9796 9794 9792 9790 9788 9788 9788 9790 9789 9788 9786 9784 9781 9781 9784 9788 9790 9792 9795 9799 9804 9806 9806 9808 9814 9820
10085 10077 10068 10060 10052 10044 10036 10029 10021 10014 10006 9998 9991 9983 9976 9969 9963 9957 9951 9945 9939 9933 9927 9921 9915 9909 9903 9898 9892 9886 9880 9874 9868 9865 9861 9858 9855 9852 9849 9843 9835 9826 9819 9813 9811 9809 9808 9805 9803 9800 9796 9792 9791 9790 9789 9788 9786 9785 9783 9781 9779 9777 9775 9774 9773 9774 9774 9773 9772 9771 9770 9768 9768 9770 9772 9775 9777 9779 9783 9787 9788 9788 9790 9794 9800
10071 10063 10054 10046 10037 10029 10022 10015 10007 9999 9992 9984 9977 9970 9963 9956 9950 9944 9938 9932 9926 9920 9913 9907 9900 9894 9889 9884 9878 9872 9866 9859 9854 9851 9847 9843 9840 9838 9837 9831 9821 9810 9802 9796 9796 9798 9796 9791 9787 9784 9781 9779 9778 9776 9775 9774 9773 9771 9769 9766 9763 9762 9762 9761 9760 9759 9759 9758 9757 9756 9756 9755 9755 9755 9757 9760 9762 9764 9765 9768 9770 9772 9774 9776 9780
10056 10048 10040 10031 10023 10016 10009 10001 9993 9985 9978 9971 9964 9956 9950 9943 9937 9930 9924 9918 9912 9906 9899 9893 9886 9880 9875 9870 9865 9858 9851 9845 9840 9837 9833 9830 9826 9823 9822 9817 9808 9799 9791 9783 9780 9782 9782 9778 9773 9770 9767 9765 9764 9763 9762 9761 9760 9758 9755 9751 9749 9748 9748 9748 9746 9745 9745 9745 9744 9743 9742 9742 9742 9740 9741 9744 9746 9746 9747 9750 9753 9756 9757 9759 9763
10042 10033 10025 10016 10009 10002 9994 9987 9979 9972 9964 9957 9950 9943 9936 9929 9923 9917 9911 9905 9898 9892 9885 9879 9873 9867 9862 9857 9852 9845 9837 9831 9828 9824 9821 9818 9813 9808 9805 9801 9794 9787 9780 9773 9769 9767 9766 9764 9761 9757 9755 9752 9750 9750 9750 9748 9746 9744 9741 9737 9735 9735 9735 9734 9732 9732 9733 9732 9731 9729 9728 9729 9728 9725 9725 9728 9730 9731 9731 9734 9737 9740 9743 9746 9750
10026 10018 10009 10002 9995 9987 9980 9972 9965 9958 9951 9943 9936 9929 9922 9916 9909 9903 9897 9891 9885 9878 9872 9866 9860 9854 9849 9844 9839 9833 9824 9818 9816 9813 9809 9805 9800 9794 9789 9784 9779 9774 9768 9763 9759 9754 9751 9750 9747 9745 9743 9739 9737 9738 9738 9736 9733 9731 9728 9725 9724 9723 9722 9718 9717 9720 9721 9721 9719 9716 9715 9715 9714 9711 9711 9713 9716 9717 9718 9720 9724 9728 9732 9734 9735
10010 10002 9994 9987 9980 9973 9966 9958 9951 9944 9937 9929 9922 9915 9909 9902 9896 9890 9884 9878 9871 9865 9859 9853 9847 9841 9836 9831 9827 9821 9813 9806 9805 9802 9797 9792 9788 9782 9776 9769 9764 9760 9755 9751 9747 9742 9739 9737 9734 9733 9731 9728 9725 9725 9726 9725 9721 9718 9715 9714 9713 9712 9708 9703 9704 9708 9709 9709 9708 9704 9701 9700 9700 9700 9699 9700 9703 9704 9705 9708 9711 9714 9717 9718 9719
9995 9987 9980 9973 9966 9959 9952 9944 9937 9930 9923 9916 9909 9902 9895 9889 9883 9877 9871 9865 9859 9853 9847 9841 9835 9829 9824 9819 9814 9809 9802 9795 9793 9791 9784 9779 9776 9770 9763 9756 9750 9747 9743 9739 9734 9730 9727 9725 9723 9720 9717 9715 9714 9713 9713 9713 9710 9706 9704 9703 9702 9700 9694 9690 9694 9697 9695 9694 9694 9691 9689 9687 9687 9688 9688 9688 9689 9691 9694 9696 9695 9696 9700 9702 9702
9980 9973 9966 9959 9952 9945 9938 9931 9924 9916 9909 9902 9896 9889 9882 9877 9871 9865 9859 9853 9847 9841 9835 9829 9824 9817 9811 9807 9803 9798 9792 9784 9781 9778 9772 9767 9764 9758 9751 9744 9739 9735 9732 9727 9722 9719 9716 9713 9712 9709 9705 9703 9702 9700 9700 9701 9699 9695 9693 9692 9690 9686 9682 9681 9685 9686 9682 9680 9679 9678 9677 9676 9677 9677 9676 9674 9674 9677 9681 9682 9680 9681 9686 9687 9686
9966 9959 9952 9945 9939 9932 9925 9918 9910 9903 9897 9890 9883 9877 9870 9865 9859 9853 9847 9841 9835 9829 9823 9818 9812 9805 9800 9796 9791 9787 9781 9774 9769 9766 9760 9755 9751 9747 9739 9732 9728 9725 9721 9715 9710 9708 9705 9702 9700 9699 9696 9692 9689 9688 9687 9688 9688 9685 9682 9680 9677 9673 9672 9674 9675 9672 9669 9669 9667 9666 9666 9666 9667 9667 9664 9662 9661 9663 9667 9669 9668 9669 9672 9672 9673
9953 9946 9939 9932 9925 9919 9911 9905 9898 9891 9884 9877 9871 9864 9858 9853 9847 9842 9836 9830 9824 9818 9813 9807 9801 9794 9788 9784 9779 9775 9771 9764 9757 9753 9749 9743 9739 9736 9729 9722 9718 9714 9709 9703 9700 9697 9694 9692 9689 9687 9686 9683 9678 9676 9676 9676 9676 9674 9671 9668 9664 9661 9661 9663 9660 9657 9657 9657 9656 9656 9656 9655 9655 9655 9653 9651 9651 9652 9654 9656 9655 9656 9657 9657 9659
9940 9932 9926 9919 9912 9906 9899 9892 9885 9878 9872 9865 9859 9852 9847 9842 9836 9831 9825 9820 9814 9808 9802 9796 9789 9782 9776 9772 9767 9763 9759 9753 9746 9742 9738 9732 9727 9724 9720 9713 9708 9704 9698 9692 9690 9687 9684 9681 9678 9676 9676 9673 9668 9666 9665 9665 9665 9664 9659 9655 9653 9651 9650 9649 9645 9643 9644 9644 9643 9644 9643 9642 9643 9643 9642 9640 9640 9640 9642 9644 9643 9642 9642 9643 9644
9927 9919 9913 9906 9900 9893 9886 9879 9873 9866 9860 9854 9847 9841 9836 9831 9826 9820 9815 9810 9804 9797 9790 9784 9778 9770 9764 9759 9755 9751 9748 9743 9736 9731 9727 9722 9717 9713 9710 9704 9699 9695 9688 9682 9679 9677 9674 9670 9667 9665 9664 9662 9659 9656 9654 9653 9653 9652 9648 9645 9643 9641 9639 9635 9632 9631 9631 9630 9629 9629 9629 9629 9630 9631 9630 9629 9629 9629 9630 9631 9630 9629 9629 9630 9632
9914 9907 9901 9894 9888 9881 9874 9868 9861 9855 9849 9842 9836 9830 9825 9820 9815 9810 9805 9800 9793 9786 9779 9773 9766 9759 9753 9747 9743 9740 9736 9731 9726 9721 9716 9711 9707 9704 9700 9696 9691 9686 9681 9674 9669 9668 9664 9660 9657 9654 9652 9651 9649 9647 9645 9643 9641 9639 9637 9635 9633 9631 9628 9624 9621 9620 9619 9617 9616 9615 9615 9615 9616 9617 9618 9617 9617 9617 9618 9618 9618 9617 9618 9619 9621
9902 9896 9889 9883 9876 9869 9863 9856 9850 9844 9838 9832 9825 9820 9815 9810 9805 9799 9794 9789 9782 9775 9768 9762 9755 9749 9742 9735 9731 9728 9725 9720 9717 9712 9706 9701 9698 9694 9690 9686 9682 9678 9673 9667 9662 9658 9655 9651 9647 9644 9641 9640 9638 9637 9635 9632 9630 9628 9626 9624 9623 9621 9618 9613 9610 9610 9608 9605 9604 9602 9601 9601 9602 9603 9603 9603 9604 9604 9604 9605 9606 9607 9607 9608 9609
9891 9884 9878 9872 9865 9858 9852 9845 9839 9833 9827 9821 9815 9810 9805 9800 9794 9789 9784 9778 9772 9765 9758 9751 9745 9738 9731 9724 9719 9716 9713 9710 9707 9703 9698 9692 9688 9685 9680 9675 9673 9670 9665 9660 9655 9650 9645 9641 9637 9633 9631 9629 9628 9626 9623 9620 9619 9617 9615 9613 9612 9610 9607 9603 9600 9599 9597 9594 9592 9590 9589 9589 9589 9588 9588 9588 9589 9590 9591 9592 9595 9596 9597 9598 9598
9879 9873 9867 9860 9854 9847 9841 9835 9829 9823 9817 9811 9805 9800 9795 9790 9784 9779 9774 9768 9762 9755 9749 9742 9735 9727 9720 9714 9709 9704 9701 9700 9697 9694 9689 9684 9679 9675 9670 9665 9663 9660 9656 9651 9648 9643 9637 9632 9628 9624 9620 9618 9616 9614 9611 9609 9607 9606 9605 9603 9601 9599 9596 9593 9590 9588 9585 9583 9581 9580 9578 9578 9576 9574 9574 9574 9574 9576 9577 9579 9582 9584 9585 9587 9588
9868 9862 9856 9849 9843 9837 9830 9824 9818 9813 9807 9802 9796 9790 9785 9780 9774 9769 9764 9759 9752 9746 9739 9732 9726 9718 9710 9705 9699 9693 9689 9689 9687 9684 9680 9675 9670 9665 9660 9656 9653 9650 9646 9642 9638 9633 9628 9624 9619 9615 9612 9609 9605 9602 9599 9596 9595 9594 9593 9592 9591 9588 9586 9583 9580 9577 9574 9572 9571 9570 9568 9567 9565 9562 9561 9561 9562 9562 9564 9566 9568 9570 9571 9574 9577
9857 9851 9845 9839 9833 9826 9820 9814 9808 9803 9797 9792 9787 9781 9775 9770 9764 9759 9755 9749 9743 9736 9730 9723 9716 9709 9701 9695 9690 9683 9678 9677 9677 9674 9670 9666 9662 9656 9651 9646 9643 9639 9636 9633 9629 9623 9618 9614 9611 9607 9603 9600 9596 9592 9588 9585 9583 9581 9579 9578 9577 9576 9575 9572 9569 9566 9564 9562 9561 9559 9557 9555 9553 9551 9550 9550 9551 9551 9552 9553 9555 9555 9556 9559 9563
9847 9841 9835 9829 9823 9817 9811 9805 9799 9793 9788 9782 9777 9771 9766 9760 9755 9749 9744 9740 9734 9728 9720 9713 9707 9700 9693 9687 9681 9674 9667 9665 9664 9662 9659 9656 9652 9646 9641 9636 9633 9629 9626 9622 9618 9611 9607 9604 9601 9597 9594 9591 9587 9583 9579 9576 9573 9570 9567 9565 9564 9563 9561 9560 9558 9555 9553 9551 9550 9547 9545 9543 9541 9540 9540 9540 9540 9540 9541 9541 9542 9542 9543 9546 9549
9837 9832 9826 9820 9813 9807 9801 9796 9790 9784 9779 9773 9767 9761 9755 9751 9745 9739 9734 9729 9725 9720 9713 9705 9698 9692 9685 9678 9673 9667 9660 9656 9653 9652 9650 9647 9643 9637 9631 9626 9623 9619 9617 9613 9608 9601 9596 9593 9588 9584 9582 9579 9576 9572 9569 9566 9563 9560 9557 9555 9554 9551 9549 9548 9546 9544 9542 9541 9538 9535 9532 9531 9530 9529 9528 9528 9529 9529 9530 9530 9531 9531 9532 9534 9535
9828 9822 9817 9810 9804 9798 9793 9787 9781 9775 9770 9764 9757 9751 9745 9740 9736 9731 9724 9719 9714 9710 9705 9697 9690 9683 9677 9670 9663 9657 9652 9647 9643 9640 9639 9637 9634 9630 9624 9618 9614 9611 9608 9603 9598 9592 9588 9585 9580 9575 9572 9569 9565 9561 9558 9555 9552 9549 9546 9544 9542 9540 9537 9536 9534 9532 9530 9529 9526 9522 9521 9519 9518 9517 9517 9517 9518 9519 9519 9519 9520 9520 9521 9522 9522
9819 9814 9808 9801 9795 9790 9784 9778 9772 9766 9760 9755 9748 9742 9736 9729 9724 9720 9716 9710 9705 9700 9696 9690 9682 9675 9670 9664 9657 9650 9644 9637 9632 9627 9624 9622 9620 9617 9613 9608 9604 9602 9599 9594 9588 9583 9578 9573 9568 9564 9561 9559 9556 9553 9550 9547 9543 9540 9537 9534 9532 9529 9527 9524 9522 9520 9518 9516 9513 9511 9509 9507 9505 9505 9505 9506 9506 9507 9508 9508 9508 9509 9510 9511 9511
9811 9805 9799 9792 9786 9781 9775 9769 9763 9757 9751 9745 9739 9733 9727 9721 9714 9708 9704 9700 9696 9691 9687 9682 9676 9668 9662 9656 9650 9645 9640 9634 9628 9622 9617 9611 9607 9604 9601 9596 9592 9590 9588 9585 9580 9575 9570 9564 9558 9552 9548 9544 9541 9538 9536 9535 9532 9530 9527 9525 9522 9520 9517 9515 9512 9510 9507 9505 9503 9500 9497 9495 9494 9494 9494 9494 9495 9496 9496 9497 9497 9498 9499 9500 9499
9803 9797 9791 9784 9778 9772 9766 9760 9754 9748 9742 9736 9730 9724 9718 9712 9706 9699 9692 9688 9684 9680 9677 9674 9668 9662 9655 9649 9643 9637 9633 9628 9624 9619 9613 9608 9602 9597 9591 9586 9581 9578 9576 9573 9569 9564 9559 9555 9550 9544 9539 9534 9530 9525 9522 9520 9517 9515 9514 9512 9510 9508 9506 9504 9502 9500 9498 9495 9493 9490 9487 9484 9483 9483 9482 9483 9484 9484 9485 9486 9487 9488 9488 9488 9488
9795 9789 9782 9776 9770 9763 9757 9751 9745 9739 9733 9727 9721 9715 9710 9704 9697 9691 9684 9678 9672 9668 9665 9662 9658 9653 9648 9642 9636 9630 9625 9621 9617 9612 9608 9603 9598 9593 9586 9580 9574 9568 9564 9561 9558 9554 9548 9543 9539 9534 9530 9525 9521 9517 9513 9509 9505 9502 9500 9499 9497 9495 9493 9491 9489 9488 9487 9485 9483 9480 9478 9475 9473 9471 9470 9471 9471 9472 9473 9475 9476 9477 9478 9477 9477
9787 9781 9774 9768 9761 9755 9748 9742 9736 9730 9725 9719 9712 9706 9701 9695 9688 9682 9676 9670 9664 9658 9653 9649 9646 9642 9637 9632 9626 9621 9616 9612 9607 9603 9598 9594 9589 9585 9579 9573 9567 9561 9555 9550 9547 9543 9539 9533 9528 9523 9519 9514 9510 9506 9503 9499 9496 9492 9489 9487 9485 9482 9481 9479 9477 9475 9474 9473 9471 9469 9468 9466 9463 9461 9460 9459 9459 9460 9462 9464 9466 9467 9467 9467 9467
9779 9772 9766 9759 9753 9746 9740 9734 9728 9722 9716 9710 9704 9698 9692 9686 9680 9673 9667 9662 9656 9650 9644 9639 9635 9631 9626 9622 9616 9610 9605 9601 9597 9593 9588 9583 9579 9574 9570 9565 9559 9554 9547 9541 9536 9531 9527 9522 9518 9513 9508 9504 9500 9496 9492 9489 9485 9482 9479 9476 9473 9471 9469 9467 9465 9463 9462 9461 9460 9458 9457 9456 9454 9451 9450 9449 9449 9449 9451 9453 9455 9456 9457 9457 9457
9771 9764 9757 9750 9744 9737 9731 9725 9719 9714 9708 9702 9695 9689 9683 9677 9671 9665 9659 9653 9647 9642 9636 9631 9626 9621 9616 9611 9606 9600 9595 9590 9586 9582 9577 9573 9569 9565 9560 9555 9550 9545 9539 9534 9528 9522 9517 9511 9507 9502 9498 9493 9489 9485 9481 9478 9474 9471 9468 9465 9462 9460 9458 9456 9454 9453 9451 9450 9449 9447 9446 9445 9443 9442 9441 9440 9439 9439 9441 9444 9445 9446 9446 9447 9447
9762 9755 9749 9742 9735 9729 9723 9717 9710 9705 9699 9693 9687 9681 9675 9668 9662 9656 9650 9644 9639 9633 9628 9623 9618 9613 9607 9602 9597 9591 9585 9580 9576 9571 9566 9562 9558 9554 9549 9545 9540 9535 9530 9525 9520 9514 9509 9503 9498 9493 9488 9483 9479 9475 9470 9467 9463 9459 9456 9454 9451 9449 9447 9445 9444 9442 9441 9440 9438 9437 9435 9435 9434 9433 9432 9431 9430 9431 9433 9435 9436 9436 9436 9437 9438
9753 9747 9740 9734 9727 9721 9715 9709 9702 9697 9691 9685 9679 9673 9666 9660 9654 9648 9642 9636 9630 9625 9619 9614 9609 9604 9599 9594 9589 9583 9577 9571 9566 9561 9556 9551 9546 9542 9537 9533 9528 9523 9518 9513 9508 9503 9498 9493 9488 9484 9479 9475 9470 9466 9461 9457 9453 9449 9445 9443 9440 9438 9436 9434 9433 9432 9430 9429 9428 9427 9426 9425 9424 9424 9424 9424 9423 9424 9425 9426 9426 9426 9426 9428 9429
9745 9738 9732 9726 9719 9713 9707 9701 9695 9689 9683 9676 9671 9664 9658 9652 9646 9640 9634 9628 9622 9616 9611 9606 9601 9596 9591 9586 9581 9575 9570 9564 9558 9553 9547 9542 9536 9531 9526 9521 9516 9511 9505 9500 9495 9490 9486 9481 9476 9472 9468 9464 9460 9456 9452 9448 9444 9440 9436 9432 9430 9427 9425 9424 9422 9421 9420 9419 9418 9417 9416 9415 9415 9416 9416 9416 9416 9417 9417 9417 9417 9417 9418 9419 9421
9736 9730 9724 9717 9711 9705 9699 9692 9686 9680 9674 9668 9663 9657 9650 9643 9638 9632 9626 9620 9614 9608 9602 9597 9592 9587 9582 9577 9572 9567 9562 9557 9552 9546 9540 9534 9528 9523 9517 9512 9506 9501 9495 9490 9485 9480 9475 9471 9466 9461 9457 9453 9449 9445 9442 9438 9435 9431 9427 9424 9421 9418 9416 9414 9413 9412 9411 9410 9409 9408 9408 9407 9407 9407 9408 9408 9408 9408 9408 9409 9409 9410 9411 9412 9414
9728 9722 9716 9709 9703 9697 9691 9684 9678 9672 9666 9660 9655 9649 9642 9636 9630 9624 9618 9612 9606 9601 9595 9589 9583 9578 9573 9568 9563 9559 9554 9549 9544 9539 9534 9528 9522 9516 9510 9504 9498 9493 9487 9481 9476 9471 9466 9462 9457 9453 9448 9443 9439 9435 9432 9428 9425 9422 9418 9415 9412 9410 9408 9406 9405 9403 9402 9401 9400 9400 9400 9400 9399 9399 9400 9400 9400 9400 9400 9401 9402 9403 9404 9405 9407
9720 9714 9708 9702 9695 9689 9683 9677 9670 9664 9658 9652 9646 9641 9634 9628 9622 9616 9610 9604 9598 9593 9587 9581 9575 9570 9564 9559 9554 9550 9545 9541 9536 9531 9526 9520 9514 9508 9502 9496 9490 9484 9479 9473 9468 9462 9457 9452 9448 9444 9439 9435 9430 9426 9422 9419 9416 9413 9409 9406 9404 9401 9400 9398 9397 9395 9394 9393 9393 9392 9392 9392 9392 9392 9392 9392 9392 9392 9393 9394 9395 9396 9397 9399 9401
9713 9706 9700 9694 9688 9682 9675 9669 9663 9657 9650 9644 9638 9632 9627 9621 9615 9609 9603 9597 9591 9585 9580 9574 9569 9563 9557 9552 9547 9542 9537 9532 9527 9522 9517 9511 9505 9499 9494 9488 9482 9476 9470 9465 9459 9454 9449 9444 9439 9435 9430 9426 9422 9418 9414 9411 9408 9405 9401 9399 9396 9394 9392 9391 9389 9388 9387 9386 9385 9385 9385 9385 9385 9385 9385 9385 9385 9386 9387 9388 9389 9390 9391 9393 9395
9705 9699 9693 9686 9680 9674 9668 9661 9655 9649 9643 9637 9631 9624 9619 9613 9607 9601 9595 9590 9584 9578 9572 9567 9561 9556 9550 9545 9540 9535 9530 9525 9519 9514 9508 9502 9497 9491 9485 9479 9473 9468 9462 9457 9451 9446 9441 9436 9431 9427 9422 9418 9414 9410 9407 9403 9400 9397 9394 9392 9389 9387 9385 9384 9383 9382 9381 9380 9379 9378 9378 9378 9379 9379 9378 9378 9379 9380 9381 9382 9383 9384 9386 9387 9389
9698 9692 9686 9679 9673 9667 9660 9654 9648 9642 9635 9629 9623 9617 9611 9605 9599 9594 9588 9582 9577 9571 9565 9560 9554 9549 9543 9538 9533 9528 9523 9517 9512 9506 9501 9495 9489 9483 9477 9471 9466 9460 9454 9449 9444 9439 9434 9428 9424 9419 9415 9410 9406 9403 9399 9396 9393 9390 9387 9385 9383 9380 9379 9377 9376 9375 9374 9373 9373 9372 9372 9372 9373 9373 9373 9373 9374 9375 9376 9377 9378 9379 9380 9382 9383
9691 9685 9678 9672 9666 9659 9653 9647 9640 9634 9628 9622 9616 9610 9604 9598 9592 9586 9580 9575 9569 9564 9558 9553 9547 9542 9537 9532 9527 9521 9516 9510 9505 9499 9494 9488 9481 9475 9470 9464 9458 9453 9447 9442 9437 9431 9426 9422 9417 9412 9408 9404 9400 9396 9393 9389 9386 9384 9381 9379 9377 9375 9373 9371 9370 9369 9368 9367 9367 9367 9367 9367 9367 9367 9368 9368 9369 9370 9370 9371 9372 9374 9375 9377 9378
9683 9677 9671 9664 9658 9652 9645 9639 9633 9626 9620 9614 9608 9602 9596 9591 9585 9579 9573 9567 9562 9556 9551 9545 9540 9535 9530 9525 9520 9515 9509 9504 9498 9493 9487 9481 9475 9469 9463 9457 9452 9446 9440 9435 9430 9424 9420 9415 9410 9406 9401 9397 9393 9390 9386 9383 9380 9378 9375 9373 9371 9369 9368 9366 9365 9364 9363 9362 9362 9362 9362 9362 9362 9362 9363 9363 9364 9365 9366 9367 9368 9369 9371 9372 9373
9676 9670 9663 9657 9651 9644 9638 9632 9625 9619 9613 9607 9600 9594 9589 9583 9578 9572 9566 9561 9555 9550 9544 9539 9534 9529 9524 9519 9514 9508 9502 9497 9492 9486 9480 9474 9468 9462 9456 9451 9445 9439 9434 9428 9423 9418 9413 9409 9404 9400 9395 9391 9388 9384 9381 9378 9375 9372 9370 9368 9366 9364 9363 9361 9360 9359 9358 9358 9357 9357 9357 9357 9358 9358 9358 9359 9359 9360 9361 9362 9363 9365 9366 9368 9369
9668 9662 9656 9649 9643 9637 9630 9624 9618 9612 9606 9600 9594 9588 9582 9576 9571 9565 9560 9554 9548 9543 9538 9533 9528 9523 9518 9512 9507 9502 9496 9491 9485 9479 9474 9468 9462 9456 9450 9444 9439 9433 9428 9422 9417 9412 9407 9403 9398 9394 9390 9386 9382 9379 9376 9373 9370 9367 9365 9363 9361 9360 9358 9357 9356 9355 9354 9354 9353 9353 9353 9353 9353 9353 9354 9355 9355 9356 9357 9358 9360 9361 9362 9363 9365